This is the latest recevied weather packets stored in our database for station/object KE0LFX. If no packets are shown the sender has not sent any weather packets the latest 1 day(s).
| Time | Temp. | Humidity | Pressure | Rain* | Wind** | Luminosity | Snow |
|---|---|---|---|---|---|---|---|
| 1778037271 | 10° C | 48% | 1016.1 hPa | 0 mm | 0.89 m/s, 35° | 0 W/m² | - |
| 1778036969 | 10° C | 48% | 1016.3 hPa | 0 mm | 0.89 m/s, 34° | 0 W/m² | - |
| 1778036667 | 10.56° C | 48% | 1016.1 hPa | 0 mm | 0.45 m/s, 16° | 0 W/m² | - |
| 1778036363 | 10.56° C | 47% | 1015.9 hPa | 0 mm | 0.89 m/s, 336° | 0 W/m² | - |
| 1778036060 | 10.56° C | 47% | 1015.9 hPa | 0 mm | 0.89 m/s, 18° | 0 W/m² | - |
| 1778035757 | 10.56° C | 47% | 1015.9 hPa | 0 mm | 0.45 m/s, 320° | 0 W/m² | - |
| 1778035454 | 10.56° C | 46% | 1015.7 hPa | 0 mm | 1.34 m/s, 27° | 0 W/m² | - |
| 1778035150 | 10.56° C | 46% | 1015.8 hPa | 0 mm | 1.79 m/s, 25° | 0 W/m² | - |
| 1778034847 | 11.11° C | 46% | 1015.7 hPa | 0 mm | 0.45 m/s, 16° | 0 W/m² | - |
| 1778034543 | 11.11° C | 45% | 1015.6 hPa | 0 mm | 1.79 m/s, 16° | 0 W/m² | - |
| 1778034241 | 11.11° C | 45% | 1015.4 hPa | 0 mm | 1.34 m/s, 34° | 0 W/m² | - |
| 1778033939 | 11.11° C | 45% | 1015.4 hPa | 0 mm | 1.79 m/s, 317° | 0 W/m² | - |
| 1778033636 | 11.11° C | 44% | 1015.3 hPa | 0 mm | 0.89 m/s, 27° | 0 W/m² | - |
| 1778033332 | 11.67° C | 44% | 1015.2 hPa | 0 mm | 1.34 m/s, 24° | 0 W/m² | - |
| 1778033031 | 11.67° C | 43% | 1015.2 hPa | 0 mm | 3.13 m/s, 1° | 0 W/m² | - |
| 1778032728 | 11.67° C | 43% | 1015 hPa | 0 mm | 0.89 m/s, 351° | 0 W/m² | - |
| 1778032425 | 11.67° C | 42% | 1015.2 hPa | 0 mm | 2.24 m/s, 11° | 0 W/m² | - |
| 1778032122 | 11.67° C | 42% | 1015 hPa | 0 mm | 1.34 m/s, 30° | 0 W/m² | - |
| 1778031819 | 12.22° C | 43% | 1014.6 hPa | 0 mm | 0 m/s | 0 W/m² | - |
| 1778031515 | 12.22° C | 42% | 1014.5 hPa | 0 mm | 3.13 m/s, 317° | 0 W/m² | - |
| 1778031213 | 12.22° C | 42% | 1014.6 hPa | 0 mm | 3.13 m/s, 328° | 0 W/m² | - |
| 1778030909 | 12.78° C | 43% | 1014.2 hPa | 0 mm | 1.34 m/s, 334° | 0 W/m² | - |
| 1778030606 | 12.78° C | 43% | 1014.2 hPa | 0 mm | 2.24 m/s, 326° | 0 W/m² | - |
| 1778030304 | 12.78° C | 43% | 1014.1 hPa | 0 mm | 0.45 m/s, 337° | 0 W/m² | - |
| 1778030000 | 12.78° C | 42% | 1014.1 hPa | 0 mm | 0.89 m/s, 294° | 0 W/m² | - |
* Rain latest hour (hover to see other rain measurements)
** Current wind speed in m/s (hover to see current wind gust speed)